Terminal Aerodrome Forecast
Issued by NWS Quad Cities IA IL

Home | Current Version | Previous Version | Text Only | Print | Product List | Glossary On
Versions: 1 2 3 4 5 6 7 8 9 10 11 12 13
000
FTUS43 KDVN 182300
TAFMLI
TAF
KMLI 182324Z 1900/1924 08012KT P6SM SCT070 BKN200
     FM191500 11005KT P6SM OVC050
      TEMPO 1918/1922 5SM SHRA BKN025=

USA.gov is the U.S. government's official web portal to all federal, state and local government web resources and services.